JLY7659 SBEG-MPTO

Flight info

Callsign JLY7659
Flight time 3h 12m
Altitude 34000
Route SINUN UP527 DADKA UM549 SIGUN ISOKO2
Aircraft B738/M-SDE2E3FGHIRWXY/LB1

Departure

Time 2026-05-06 20:30
Airport Eduardo Gomes International Airport (SBEG)

Arrival

Time 2026-05-06 23:42
Airport Tocumen International Airport (MPTO)
Time Latitude Longitude Altitude Speed Heading
2026-05-06 20:10 -3.03282 -60.04594 298 ft 0 kts 330°
2026-05-06 20:22 -3.03292 -60.04589 302 ft 4 kts 357°
2026-05-06 20:22 -3.03307 -60.04598 300 ft 4 kts 75°
2026-05-06 20:22 -3.03309 -60.04609 299 ft 0 kts 88°
2026-05-06 20:26 -3.03306 -60.04599 298 ft 5 kts 34°
2026-05-06 20:26 -3.03295 -60.04564 298 ft 11 kts 94°
2026-05-06 20:26 -3.03308 -60.04456 300 ft 17 kts 104°
2026-05-06 20:27 -3.03386 -60.04377 300 ft 16 kts 163°
2026-05-06 20:27 -3.03490 -60.04339 299 ft 16 kts 141°
2026-05-06 20:27 -3.03560 -60.04256 299 ft 15 kts 124°
2026-05-06 20:27 -3.03597 -60.04160 301 ft 15 kts 108°
2026-05-06 20:28 -3.03627 -60.04065 302 ft 14 kts 105°
2026-05-06 20:28 -3.03647 -60.03972 300 ft 13 kts 102°
2026-05-06 20:28 -3.03668 -60.03884 303 ft 13 kts 105°
2026-05-06 20:28 -3.03705 -60.03804 302 ft 13 kts 126°
2026-05-06 20:29 -3.03780 -60.03767 303 ft 12 kts 176°
2026-05-06 20:29 -3.03851 -60.03804 301 ft 14 kts 240°
2026-05-06 20:29 -3.03861 -60.04084 301 ft 82 kts 271°
2026-05-06 20:29 -3.03859 -60.04938 301 ft 161 kts 269°
2026-05-06 20:30 -3.03822 -60.06135 1012 ft 181 kts 272°
2026-05-06 20:30 -3.03759 -60.08772 3356 ft 194 kts 274°
2026-05-06 20:30 -3.03738 -60.10229 3932 ft 225 kts 272°
2026-05-06 20:31 -3.03710 -60.11894 4171 ft 252 kts 272°
2026-05-06 20:31 -3.03679 -60.13681 4707 ft 261 kts 272°
2026-05-06 20:31 -3.03645 -60.15527 5247 ft 272 kts 272°
2026-05-06 20:31 -3.03608 -60.17486 5688 ft 290 kts 271°
2026-05-06 20:32 -3.03567 -60.19532 6477 ft 296 kts 271°
2026-05-06 20:32 -3.03524 -60.21601 7356 ft 299 kts 271°
2026-05-06 20:32 -3.03481 -60.23680 8270 ft 300 kts 271°
2026-05-06 20:32 -3.03436 -60.25782 9137 ft 304 kts 271°
2026-05-06 20:33 -3.03390 -60.27912 9967 ft 309 kts 271°
2026-05-06 20:33 -3.03343 -60.30102 10487 ft 325 kts 271°
2026-05-06 20:33 -3.03292 -60.32458 10671 ft 351 kts 271°
2026-05-06 20:33 -3.02922 -60.34916 11149 ft 364 kts 290°
2026-05-06 20:34 -3.01876 -60.37226 11986 ft 366 kts 297°
2026-05-06 20:34 -3.00700 -60.39500 12767 ft 369 kts 299°
2026-05-06 20:34 -2.99482 -60.41783 13466 ft 374 kts 299°
2026-05-06 20:34 -2.98249 -60.44091 14119 ft 378 kts 299°
2026-05-06 20:35 -2.97013 -60.46421 14742 ft 381 kts 299°
2026-05-06 20:35 -2.95771 -60.48782 15313 ft 386 kts 298°
2026-05-06 20:35 -2.94520 -60.51175 15909 ft 390 kts 298°
2026-05-06 20:35 -2.93265 -60.53590 16504 ft 393 kts 298°
2026-05-06 20:36 -2.91999 -60.56030 17076 ft 398 kts 298°
2026-05-06 20:36 -2.90721 -60.58498 17646 ft 401 kts 298°
2026-05-06 20:36 -2.89430 -60.60991 18209 ft 405 kts 298°
2026-05-06 20:36 -2.88130 -60.63504 18688 ft 409 kts 298°
2026-05-06 20:37 -2.86816 -60.66042 19170 ft 412 kts 298°
2026-05-06 20:37 -2.85493 -60.68597 19649 ft 415 kts 298°
2026-05-06 20:37 -2.84162 -60.71170 20120 ft 418 kts 297°
2026-05-06 20:37 -2.82816 -60.73769 20572 ft 422 kts 297°
2026-05-06 20:38 -2.81461 -60.76385 21021 ft 425 kts 297°
2026-05-06 20:38 -2.80096 -60.79022 21471 ft 428 kts 297°
2026-05-06 20:38 -2.78721 -60.81677 21909 ft 431 kts 297°
2026-05-06 20:38 -2.77337 -60.84349 22339 ft 435 kts 297°
2026-05-06 20:39 -2.75940 -60.87046 22770 ft 438 kts 297°
2026-05-06 20:39 -2.74534 -60.89762 23168 ft 441 kts 297°
2026-05-06 20:39 -2.73118 -60.92495 23570 ft 444 kts 297°
2026-05-06 20:39 -2.71694 -60.95242 23904 ft 446 kts 297°
2026-05-06 20:40 -2.70264 -60.98003 24277 ft 447 kts 297°
2026-05-06 20:40 -2.68831 -61.00769 24666 ft 448 kts 297°
2026-05-06 20:40 -2.67394 -61.03542 25034 ft 450 kts 297°
2026-05-06 20:40 -2.65952 -61.06324 25382 ft 451 kts 297°
2026-05-06 20:41 -2.64507 -61.09113 25733 ft 453 kts 297°
2026-05-06 20:41 -2.63055 -61.11915 26070 ft 454 kts 297°
2026-05-06 20:41 -2.61598 -61.14727 26402 ft 456 kts 297°
2026-05-06 20:41 -2.60137 -61.17546 26734 ft 457 kts 297°
2026-05-06 20:42 -2.58671 -61.20374 27059 ft 459 kts 297°
2026-05-06 20:42 -2.57285 -61.23259 27378 ft 461 kts 294°
2026-05-06 20:42 -2.56041 -61.26175 27682 ft 462 kts 292°
2026-05-06 20:42 -2.54820 -61.29200 27987 ft 464 kts 292°
2026-05-06 20:43 -2.53621 -61.32206 28277 ft 466 kts 292°
2026-05-06 20:43 -2.52414 -61.35216 28556 ft 468 kts 292°
2026-05-06 20:43 -2.51206 -61.38190 28841 ft 469 kts 292°
2026-05-06 20:43 -2.49966 -61.41214 29126 ft 470 kts 292°
2026-05-06 20:44 -2.48715 -61.44241 29388 ft 472 kts 293°
2026-05-06 20:44 -2.47453 -61.47280 29641 ft 474 kts 293°
2026-05-06 20:44 -2.46188 -61.50323 29898 ft 476 kts 293°
2026-05-06 20:44 -2.44915 -61.53385 30112 ft 477 kts 293°
2026-05-06 20:45 -2.43640 -61.56453 30318 ft 479 kts 293°
2026-05-06 20:45 -2.42361 -61.59530 30548 ft 479 kts 293°
2026-05-06 20:45 -2.41082 -61.62609 30818 ft 479 kts 293°
2026-05-06 20:45 -2.39807 -61.65678 31141 ft 477 kts 292°
2026-05-06 20:46 -2.38535 -61.68742 31474 ft 476 kts 292°
2026-05-06 20:46 -2.37267 -61.71796 31769 ft 476 kts 292°
2026-05-06 20:46 -2.35995 -61.74858 32031 ft 476 kts 292°
2026-05-06 20:46 -2.34726 -61.77912 32326 ft 475 kts 292°
2026-05-06 20:47 -2.33476 -61.80921 32687 ft 474 kts 292°
2026-05-06 20:47 -2.32214 -61.83958 33010 ft 473 kts 292°
2026-05-06 20:47 -2.30952 -61.86996 33314 ft 473 kts 292°
2026-05-06 20:47 -2.29692 -61.90029 33613 ft 472 kts 292°
2026-05-06 20:48 -2.28432 -61.93062 33941 ft 472 kts 292°
2026-05-06 20:48 -2.27175 -61.96085 34253 ft 470 kts 292°
2026-05-06 20:48 -2.25924 -61.99096 34566 ft 468 kts 292°
2026-05-06 20:48 -2.24676 -62.02099 34855 ft 467 kts 292°
2026-05-06 20:49 -2.23430 -62.05097 35140 ft 467 kts 292°
2026-05-06 20:49 -2.22185 -62.08093 35413 ft 466 kts 292°
2026-05-06 20:49 -2.20944 -62.11079 35683 ft 465 kts 292°
2026-05-06 20:49 -2.19705 -62.14066 35921 ft 465 kts 292°
2026-05-06 20:50 -2.18463 -62.17061 35942 ft 469 kts 292°
2026-05-06 20:50 -2.15967 -62.23083 35951 ft 468 kts 292°
2026-05-06 20:51 -2.13511 -62.29006 35945 ft 461 kts 292°
2026-05-06 20:51 -2.11058 -62.34920 35957 ft 460 kts 292°
2026-05-06 20:52 -2.09018 -62.39839 35956 ft 460 kts 292°
2026-05-06 20:52 -2.06551 -62.45785 35958 ft 460 kts 292°
2026-05-06 20:53 -2.04112 -62.51666 35954 ft 461 kts 292°
2026-05-06 20:53 -2.01652 -62.57592 35958 ft 462 kts 292°
2026-05-06 20:54 -1.99143 -62.63502 35951 ft 463 kts 293°
2026-05-06 20:54 -1.96603 -62.69420 35959 ft 463 kts 293°
2026-05-06 20:55 -1.94064 -62.75350 35957 ft 464 kts 293°
2026-05-06 20:55 -1.91526 -62.81291 35958 ft 465 kts 293°
2026-05-06 20:56 -1.88985 -62.87243 35951 ft 466 kts 293°
2026-05-06 20:56 -1.86442 -62.93199 35954 ft 466 kts 293°
2026-05-06 20:57 -1.83910 -62.99126 35953 ft 466 kts 293°
2026-05-06 20:57 -1.81363 -63.05091 35958 ft 467 kts 293°
2026-05-06 20:58 -1.78815 -63.11056 35960 ft 467 kts 293°
2026-05-06 20:58 -1.76266 -63.17024 35954 ft 467 kts 293°
2026-05-06 20:59 -1.73717 -63.22986 35960 ft 467 kts 293°
2026-05-06 20:59 -1.70797 -63.28780 35966 ft 466 kts 299°
2026-05-06 21:00 -1.67624 -63.34432 35962 ft 466 kts 299°
2026-05-06 21:00 -1.64456 -63.40087 35956 ft 467 kts 298°
2026-05-06 21:01 -1.61326 -63.45769 35967 ft 466 kts 298°
2026-05-06 21:01 -1.58219 -63.51453 35955 ft 466 kts 298°
2026-05-06 21:02 -1.55116 -63.57138 35960 ft 466 kts 298°
2026-05-06 21:02 -1.52015 -63.62816 35956 ft 465 kts 298°
2026-05-06 21:03 -1.48912 -63.68496 35962 ft 465 kts 298°
2026-05-06 21:03 -1.45812 -63.74167 35961 ft 465 kts 298°
2026-05-06 21:04 -1.42737 -63.79794 35958 ft 464 kts 298°
2026-05-06 21:04 -1.39643 -63.85453 35962 ft 464 kts 298°
2026-05-06 21:05 -1.36551 -63.91110 35962 ft 464 kts 298°
2026-05-06 21:05 -1.33461 -63.96763 35954 ft 464 kts 298°
2026-05-06 21:06 -1.30349 -64.02455 35969 ft 464 kts 298°
2026-05-06 21:06 -1.27276 -64.08075 35967 ft 464 kts 298°
2026-05-06 21:07 -1.24184 -64.13731 35961 ft 464 kts 298°
2026-05-06 21:07 -1.21092 -64.19385 35959 ft 463 kts 298°
2026-05-06 21:08 -1.18001 -64.25038 35959 ft 463 kts 298°
2026-05-06 21:08 -1.14908 -64.30693 35964 ft 463 kts 298°
2026-05-06 21:09 -1.11823 -64.36334 35960 ft 463 kts 298°
2026-05-06 21:09 -1.08736 -64.41978 35967 ft 462 kts 298°
2026-05-06 21:10 -1.05653 -64.47613 35962 ft 462 kts 298°
2026-05-06 21:10 -1.02573 -64.53243 35972 ft 461 kts 298°
2026-05-06 21:11 -0.99497 -64.58867 35962 ft 461 kts 298°
2026-05-06 21:11 -0.96426 -64.64482 35963 ft 460 kts 298°
2026-05-06 21:12 -0.93357 -64.70091 35963 ft 460 kts 298°
2026-05-06 21:12 -0.90294 -64.75689 35964 ft 459 kts 298°
2026-05-06 21:13 -0.87233 -64.81283 35965 ft 459 kts 298°
2026-05-06 21:13 -0.84174 -64.86875 35961 ft 458 kts 298°
2026-05-06 21:14 -0.81117 -64.92462 35962 ft 458 kts 298°
2026-05-06 21:14 -0.78080 -64.98013 35964 ft 458 kts 298°
2026-05-06 21:15 -0.75023 -65.03600 35962 ft 458 kts 299°
2026-05-06 21:15 -0.71962 -65.09195 35958 ft 459 kts 299°
2026-05-06 21:16 -0.68898 -65.14794 35964 ft 460 kts 299°
2026-05-06 21:16 -0.65854 -65.20423 35960 ft 461 kts 298°
2026-05-06 21:17 -0.62926 -65.26137 35967 ft 463 kts 297°
2026-05-06 21:17 -0.59995 -65.31875 35954 ft 464 kts 297°
2026-05-06 21:18 -0.57036 -65.37624 35970 ft 465 kts 297°
2026-05-06 21:18 -0.54067 -65.43379 35959 ft 466 kts 297°
2026-05-06 21:19 -0.51093 -65.49135 35954 ft 467 kts 297°
2026-05-06 21:19 -0.48113 -65.54903 35967 ft 467 kts 297°
2026-05-06 21:20 -0.45136 -65.60668 35954 ft 467 kts 297°
2026-05-06 21:20 -0.42161 -65.66429 35968 ft 466 kts 297°
2026-05-06 21:21 -0.39207 -65.72148 35954 ft 465 kts 297°
2026-05-06 21:21 -0.36245 -65.77880 35953 ft 464 kts 297°
2026-05-06 21:22 -0.33289 -65.83602 35967 ft 462 kts 297°
2026-05-06 21:22 -0.30341 -65.89311 35957 ft 461 kts 297°
2026-05-06 21:23 -0.27404 -65.94998 35952 ft 460 kts 297°
2026-05-06 21:23 -0.24468 -66.00683 35957 ft 460 kts 297°
2026-05-06 21:24 -0.21534 -66.06365 35962 ft 460 kts 298°
2026-05-06 21:24 -0.18603 -66.12039 35956 ft 460 kts 298°
2026-05-06 21:25 -0.15669 -66.17722 35962 ft 461 kts 298°
2026-05-06 21:25 -0.12729 -66.23414 35965 ft 461 kts 297°
2026-05-06 21:26 -0.09777 -66.29119 35951 ft 463 kts 298°
2026-05-06 21:26 -0.06839 -66.34791 35964 ft 463 kts 298°
2026-05-06 21:27 -0.03878 -66.40513 35959 ft 464 kts 298°
2026-05-06 21:27 -0.00910 -66.46247 35963 ft 465 kts 298°
2026-05-06 21:28 0.02057 -66.51983 35963 ft 465 kts 298°
2026-05-06 21:28 0.05026 -66.57720 35953 ft 465 kts 298°
2026-05-06 21:29 0.07993 -66.63454 35958 ft 464 kts 298°
2026-05-06 21:29 0.10955 -66.69179 35958 ft 464 kts 298°
2026-05-06 21:30 0.13915 -66.74899 35960 ft 463 kts 298°
2026-05-06 21:30 0.16874 -66.80619 35957 ft 463 kts 298°
2026-05-06 21:31 0.19828 -66.86328 35957 ft 462 kts 298°
2026-05-06 21:31 0.22777 -66.92029 35953 ft 462 kts 298°
2026-05-06 21:32 0.25729 -66.97735 35956 ft 461 kts 298°
2026-05-06 21:32 0.30148 -67.06278 35958 ft 461 kts 298°
2026-05-06 21:33 0.33095 -67.11973 35957 ft 462 kts 298°
2026-05-06 21:33 0.36041 -67.17670 35947 ft 462 kts 298°
2026-05-06 21:34 0.38990 -67.23377 35959 ft 462 kts 298°
2026-05-06 21:34 0.41921 -67.29050 35955 ft 463 kts 298°
2026-05-06 21:35 0.44875 -67.34769 35954 ft 463 kts 298°
2026-05-06 21:35 0.47833 -67.40494 35953 ft 464 kts 298°
2026-05-06 21:36 0.50791 -67.46221 35954 ft 464 kts 298°
2026-05-06 21:36 0.53753 -67.51954 35954 ft 464 kts 298°
2026-05-06 21:37 0.56716 -67.57690 35952 ft 464 kts 298°
2026-05-06 21:37 0.59672 -67.63415 35949 ft 464 kts 298°
2026-05-06 21:38 0.62129 -67.68171 35957 ft 463 kts 298°
2026-05-06 21:38 0.65088 -67.73900 35956 ft 463 kts 298°
2026-05-06 21:39 0.68039 -67.79613 35955 ft 463 kts 298°
2026-05-06 21:39 0.70991 -67.85329 35958 ft 462 kts 298°
2026-05-06 21:40 0.73939 -67.91036 35955 ft 462 kts 298°
2026-05-06 21:40 0.76886 -67.96743 35957 ft 462 kts 298°
2026-05-06 21:41 0.79831 -68.02447 35957 ft 462 kts 298°
2026-05-06 21:41 0.82775 -68.08148 35956 ft 462 kts 298°
2026-05-06 21:42 0.85723 -68.13856 35957 ft 462 kts 298°
2026-05-06 21:42 0.88648 -68.19520 35963 ft 462 kts 298°
2026-05-06 21:43 0.91595 -68.25229 35955 ft 462 kts 298°
2026-05-06 21:43 0.94540 -68.30933 35957 ft 462 kts 298°
2026-05-06 21:44 0.97488 -68.36643 35955 ft 462 kts 298°
2026-05-06 21:44 1.00436 -68.42354 35955 ft 462 kts 298°
2026-05-06 21:45 1.03385 -68.48067 35957 ft 462 kts 298°
2026-05-06 21:45 1.06333 -68.53778 35953 ft 463 kts 298°
2026-05-06 21:46 1.09285 -68.59495 35958 ft 463 kts 298°
2026-05-06 21:46 1.12216 -68.65176 35957 ft 463 kts 298°
2026-05-06 21:47 1.15169 -68.70897 35956 ft 463 kts 298°
2026-05-06 21:47 1.18121 -68.76616 35960 ft 463 kts 298°
2026-05-06 21:48 1.21074 -68.82339 35960 ft 463 kts 298°
2026-05-06 21:48 1.24025 -68.88058 35957 ft 463 kts 297°
2026-05-06 21:49 1.26982 -68.93790 35962 ft 464 kts 297°
2026-05-06 21:49 1.29939 -68.99521 35960 ft 464 kts 297°
2026-05-06 21:50 1.32896 -69.05253 35953 ft 464 kts 297°
2026-05-06 21:50 1.35856 -69.10991 35950 ft 464 kts 297°
2026-05-06 21:51 1.38799 -69.16696 35957 ft 464 kts 297°
2026-05-06 21:51 1.41778 -69.22473 35950 ft 465 kts 297°
2026-05-06 21:52 1.44741 -69.28218 35960 ft 465 kts 297°
2026-05-06 21:52 1.47703 -69.33963 35952 ft 465 kts 297°
2026-05-06 21:53 1.50666 -69.39707 35949 ft 465 kts 297°
2026-05-06 21:53 1.53623 -69.45443 35949 ft 464 kts 297°
2026-05-06 21:54 1.56581 -69.51180 35953 ft 464 kts 297°
2026-05-06 21:54 1.59535 -69.56910 35944 ft 463 kts 297°
2026-05-06 21:55 1.62482 -69.62628 35949 ft 463 kts 297°
2026-05-06 21:55 1.65428 -69.68343 35953 ft 462 kts 297°
2026-05-06 21:56 1.68368 -69.74049 35946 ft 462 kts 297°
2026-05-06 21:56 1.71316 -69.79754 35949 ft 462 kts 297°
2026-05-06 21:57 1.74309 -69.85440 35948 ft 462 kts 297°
2026-05-06 21:57 1.77309 -69.91113 35957 ft 462 kts 297°
2026-05-06 21:58 1.80304 -69.96789 35932 ft 462 kts 297°
2026-05-06 21:58 1.83300 -70.02477 35954 ft 462 kts 297°
2026-05-06 21:59 1.86296 -70.08168 35947 ft 463 kts 297°
2026-05-06 21:59 1.89301 -70.13875 35946 ft 464 kts 297°
2026-05-06 22:00 1.92305 -70.19582 35946 ft 464 kts 297°
2026-05-06 22:00 1.95314 -70.25300 35943 ft 465 kts 297°
2026-05-06 22:01 1.98327 -70.31025 35942 ft 465 kts 297°
2026-05-06 22:01 2.01342 -70.36755 35937 ft 466 kts 297°
2026-05-06 22:02 2.04361 -70.42492 35945 ft 466 kts 297°
2026-05-06 22:02 2.07363 -70.48198 35932 ft 467 kts 297°
2026-05-06 22:03 2.10381 -70.53936 35937 ft 467 kts 297°
2026-05-06 22:03 2.13402 -70.59678 35931 ft 466 kts 297°
2026-05-06 22:04 2.16416 -70.65410 35939 ft 465 kts 297°
2026-05-06 22:04 2.19427 -70.71136 35933 ft 465 kts 297°
2026-05-06 22:05 2.22434 -70.76854 35936 ft 464 kts 297°
2026-05-06 22:05 2.25439 -70.82571 35933 ft 464 kts 297°
2026-05-06 22:06 2.28445 -70.88290 35936 ft 464 kts 297°
2026-05-06 22:06 2.31448 -70.94017 35929 ft 465 kts 297°
2026-05-06 22:07 2.34438 -70.99752 35935 ft 466 kts 297°
2026-05-06 22:07 2.37434 -71.05504 35935 ft 466 kts 297°
2026-05-06 22:08 2.40433 -71.11258 35936 ft 467 kts 297°
2026-05-06 22:08 2.43440 -71.17027 35929 ft 468 kts 297°
2026-05-06 22:09 2.46448 -71.22797 35928 ft 468 kts 297°
2026-05-06 22:09 2.49441 -71.28540 35929 ft 469 kts 297°
2026-05-06 22:10 2.52455 -71.34324 35928 ft 469 kts 297°
2026-05-06 22:10 2.55472 -71.40115 35928 ft 469 kts 297°
2026-05-06 22:11 2.58489 -71.45906 35928 ft 469 kts 297°
2026-05-06 22:11 2.61505 -71.51697 35926 ft 469 kts 297°
2026-05-06 22:12 2.64520 -71.57486 35935 ft 469 kts 297°
2026-05-06 22:12 2.67534 -71.63274 35926 ft 469 kts 297°
2026-05-06 22:13 2.70546 -71.69060 35926 ft 469 kts 297°
2026-05-06 22:13 2.73556 -71.74842 35931 ft 468 kts 297°
2026-05-06 22:14 2.76564 -71.80620 35929 ft 468 kts 297°
2026-05-06 22:14 2.79568 -71.86393 35926 ft 468 kts 297°
2026-05-06 22:15 2.82569 -71.92160 35936 ft 467 kts 297°
2026-05-06 22:15 2.85567 -71.97922 35931 ft 467 kts 297°
2026-05-06 22:16 2.88565 -72.03685 35933 ft 467 kts 297°
2026-05-06 22:16 2.91561 -72.09445 35930 ft 466 kts 297°
2026-05-06 22:17 2.94554 -72.15201 35930 ft 466 kts 297°
2026-05-06 22:17 2.97548 -72.20960 35930 ft 466 kts 297°
2026-05-06 22:18 3.00541 -72.26717 35938 ft 466 kts 297°
2026-05-06 22:18 3.03532 -72.32471 35936 ft 466 kts 297°
2026-05-06 22:19 3.06520 -72.38221 35934 ft 466 kts 297°
2026-05-06 22:19 3.09510 -72.43977 35936 ft 466 kts 297°
2026-05-06 22:20 3.12480 -72.49694 35935 ft 466 kts 297°
2026-05-06 22:20 3.15819 -72.55234 35932 ft 466 kts 309°
2026-05-06 22:21 3.19962 -72.60215 35935 ft 466 kts 310°
2026-05-06 22:21 3.22851 -72.63625 35929 ft 466 kts 310°
2026-05-06 22:22 3.24885 -72.66040 35930 ft 466 kts 310°
2026-05-06 22:22 3.28367 -72.70212 35938 ft 467 kts 310°
2026-05-06 22:23 3.32518 -72.75226 35936 ft 467 kts 309°
2026-05-06 22:23 3.36661 -72.80244 35933 ft 468 kts 309°
2026-05-06 22:24 3.38751 -72.82775 35930 ft 468 kts 309°
2026-05-06 22:25 3.41736 -72.86391 35943 ft 468 kts 309°
2026-05-06 22:25 3.45888 -72.91419 35930 ft 469 kts 309°
2026-05-06 22:26 3.50045 -72.96452 35939 ft 469 kts 309°
2026-05-06 22:26 3.54194 -73.01476 35938 ft 468 kts 309°
2026-05-06 22:27 3.58335 -73.06492 35928 ft 467 kts 310°
2026-05-06 22:27 3.62454 -73.11482 35935 ft 467 kts 309°
2026-05-06 22:28 3.66585 -73.16488 35933 ft 466 kts 309°
2026-05-06 22:28 3.70742 -73.21525 35928 ft 466 kts 309°
2026-05-06 22:29 3.74839 -73.26491 35940 ft 466 kts 309°
2026-05-06 22:29 3.78966 -73.31493 35945 ft 465 kts 309°
2026-05-06 22:30 3.83088 -73.36492 35930 ft 465 kts 309°
2026-05-06 22:30 3.87209 -73.41489 35946 ft 465 kts 309°
2026-05-06 22:31 3.91330 -73.46487 35943 ft 465 kts 309°
2026-05-06 22:31 3.95447 -73.51481 35968 ft 465 kts 309°
2026-05-06 22:32 3.99540 -73.56447 35964 ft 465 kts 309°
2026-05-06 22:32 4.03655 -73.61440 35969 ft 465 kts 309°
2026-05-06 22:33 4.07768 -73.66433 35955 ft 465 kts 309°
2026-05-06 22:33 4.11914 -73.71466 35986 ft 466 kts 309°
2026-05-06 22:34 4.16018 -73.76449 35981 ft 467 kts 309°
2026-05-06 22:34 4.20157 -73.81475 36011 ft 468 kts 309°
2026-05-06 22:35 4.24303 -73.86510 36080 ft 469 kts 309°
2026-05-06 22:35 4.28454 -73.91553 36094 ft 469 kts 309°
2026-05-06 22:36 4.32600 -73.96591 36126 ft 468 kts 309°
2026-05-06 22:36 4.36748 -74.01632 36121 ft 468 kts 309°
2026-05-06 22:37 4.40896 -74.06675 36179 ft 468 kts 309°
2026-05-06 22:37 4.45033 -74.11704 36190 ft 467 kts 309°
2026-05-06 22:38 4.49161 -74.16724 36233 ft 465 kts 309°
2026-05-06 22:38 4.53270 -74.21721 36238 ft 463 kts 309°
2026-05-06 22:39 4.57360 -74.26698 36247 ft 462 kts 309°
2026-05-06 22:39 4.61435 -74.31664 36218 ft 460 kts 309°
2026-05-06 22:40 4.65437 -74.36616 36149 ft 459 kts 309°
2026-05-06 22:40 4.69451 -74.41606 36090 ft 459 kts 309°
2026-05-06 22:41 4.75473 -74.49080 35969 ft 460 kts 309°
2026-05-06 22:42 4.79491 -74.54063 35913 ft 460 kts 309°
2026-05-06 22:42 4.83515 -74.59056 35894 ft 460 kts 309°
2026-05-06 22:43 4.87538 -74.64049 35885 ft 460 kts 309°
2026-05-06 22:43 4.91536 -74.69055 35876 ft 460 kts 307°
2026-05-06 22:44 4.95282 -74.74251 35881 ft 460 kts 305°
2026-05-06 22:44 4.98936 -74.79506 35889 ft 459 kts 305°
2026-05-06 22:45 5.02605 -74.84745 35883 ft 459 kts 305°
2026-05-06 22:45 5.06296 -74.89974 35868 ft 459 kts 305°
2026-05-06 22:46 5.09990 -74.95190 35873 ft 459 kts 305°
2026-05-06 22:46 5.13688 -75.00412 35917 ft 459 kts 305°
2026-05-06 22:47 5.17381 -75.05630 35916 ft 459 kts 305°
2026-05-06 22:47 5.21074 -75.10851 35965 ft 459 kts 306°
2026-05-06 22:48 5.24765 -75.16070 35961 ft 459 kts 306°
2026-05-06 22:48 5.28458 -75.21292 36001 ft 459 kts 306°
2026-05-06 22:49 5.32149 -75.26514 35980 ft 459 kts 306°
2026-05-06 22:49 5.35843 -75.31741 35978 ft 459 kts 306°
2026-05-06 22:50 5.39542 -75.36976 35978 ft 459 kts 306°
2026-05-06 22:50 5.43239 -75.42210 35984 ft 459 kts 306°
2026-05-06 22:51 5.46900 -75.47394 35969 ft 458 kts 306°
2026-05-06 22:51 5.50580 -75.52607 35939 ft 457 kts 306°
2026-05-06 22:52 5.54248 -75.57803 35942 ft 456 kts 305°
2026-05-06 22:52 5.57908 -75.62990 35952 ft 456 kts 305°
2026-05-06 22:53 5.61578 -75.68192 35929 ft 457 kts 305°
2026-05-06 22:53 5.65257 -75.73409 35926 ft 458 kts 305°
2026-05-06 22:54 5.68943 -75.78638 35942 ft 459 kts 306°
2026-05-06 22:54 5.72728 -75.83799 35939 ft 459 kts 309°
2026-05-06 22:55 5.76828 -75.88728 35922 ft 460 kts 311°
2026-05-06 22:55 5.80959 -75.93587 35941 ft 461 kts 311°
2026-05-06 22:56 5.85101 -75.98510 35940 ft 461 kts 310°
2026-05-06 22:56 5.89224 -76.03452 35934 ft 461 kts 310°
2026-05-06 22:57 5.93337 -76.08398 35947 ft 461 kts 310°
2026-05-06 22:57 5.97451 -76.13347 35959 ft 461 kts 310°
2026-05-06 22:58 6.01561 -76.18291 35938 ft 461 kts 311°
2026-05-06 22:58 6.05663 -76.23227 35938 ft 460 kts 311°
2026-05-06 22:59 6.09774 -76.28170 35947 ft 461 kts 311°
2026-05-06 22:59 6.13879 -76.33109 35948 ft 460 kts 310°
2026-05-06 23:00 6.17979 -76.38044 35916 ft 460 kts 311°
2026-05-06 23:00 6.22073 -76.42974 35937 ft 460 kts 311°
2026-05-06 23:01 6.26169 -76.47909 35929 ft 459 kts 310°
2026-05-06 23:01 6.30261 -76.52839 35889 ft 460 kts 310°
2026-05-06 23:02 6.34365 -76.57785 35890 ft 460 kts 310°
2026-05-06 23:02 6.38471 -76.62733 35897 ft 461 kts 310°
2026-05-06 23:03 6.42556 -76.67659 35870 ft 461 kts 310°
2026-05-06 23:03 6.46669 -76.72619 35872 ft 462 kts 310°
2026-05-06 23:04 6.50785 -76.77584 35867 ft 462 kts 310°
2026-05-06 23:04 6.54905 -76.82556 35862 ft 463 kts 310°
2026-05-06 23:05 6.59027 -76.87531 35858 ft 463 kts 310°
2026-05-06 23:05 6.63150 -76.92510 35860 ft 463 kts 310°
2026-05-06 23:06 6.67270 -76.97486 35854 ft 463 kts 310°
2026-05-06 23:06 6.71387 -77.02460 35858 ft 462 kts 310°
2026-05-06 23:07 6.75498 -77.07427 35854 ft 461 kts 310°
2026-05-06 23:07 6.79598 -77.12384 35862 ft 461 kts 310°
2026-05-06 23:08 6.83695 -77.17337 35862 ft 460 kts 310°
2026-05-06 23:08 6.87787 -77.22287 35858 ft 459 kts 310°
2026-05-06 23:09 6.91848 -77.27200 35863 ft 459 kts 310°
2026-05-06 23:09 6.95931 -77.32141 35868 ft 459 kts 310°
2026-05-06 23:10 6.99325 -77.36250 35876 ft 459 kts 310°
2026-05-06 23:10 7.04097 -77.42029 35878 ft 459 kts 310°
2026-05-06 23:11 7.07492 -77.46142 35877 ft 459 kts 310°
2026-05-06 23:11 7.11575 -77.51089 35881 ft 460 kts 310°
2026-05-06 23:12 7.15665 -77.56046 35885 ft 460 kts 310°
2026-05-06 23:12 7.19752 -77.61002 35894 ft 460 kts 310°
2026-05-06 23:13 7.23846 -77.65966 35883 ft 460 kts 310°
2026-05-06 23:13 7.27932 -77.70924 35895 ft 460 kts 310°
2026-05-06 23:14 7.32020 -77.75886 35897 ft 460 kts 310°
2026-05-06 23:14 7.34056 -77.78359 35697 ft 458 kts 310°
2026-05-06 23:14 7.36077 -77.80813 35373 ft 450 kts 310°
2026-05-06 23:14 7.38061 -77.83222 34970 ft 445 kts 310°
2026-05-06 23:15 7.40042 -77.85603 34584 ft 441 kts 311°
2026-05-06 23:15 7.42038 -77.87934 34181 ft 438 kts 311°
2026-05-06 23:15 7.44034 -77.90236 33745 ft 435 kts 312°
2026-05-06 23:15 7.46021 -77.92519 33315 ft 431 kts 312°
2026-05-06 23:16 7.47989 -77.94785 32913 ft 428 kts 312°
2026-05-06 23:16 7.49938 -77.97034 32507 ft 424 kts 312°
2026-05-06 23:16 7.51843 -77.99238 32121 ft 421 kts 312°
2026-05-06 23:16 7.53756 -78.01454 31735 ft 418 kts 312°
2026-05-06 23:17 7.55656 -78.03658 31358 ft 414 kts 312°
2026-05-06 23:17 7.57537 -78.05841 30983 ft 411 kts 312°
2026-05-06 23:17 7.59406 -78.08010 30618 ft 408 kts 312°
2026-05-06 23:17 7.61263 -78.10166 30243 ft 406 kts 312°
2026-05-06 23:18 7.63107 -78.12307 29852 ft 403 kts 312°
2026-05-06 23:18 7.64940 -78.14435 29428 ft 400 kts 312°
2026-05-06 23:18 7.66755 -78.16544 29019 ft 397 kts 313°
2026-05-06 23:18 7.68556 -78.18636 28623 ft 393 kts 313°
2026-05-06 23:19 7.70338 -78.20706 28238 ft 390 kts 313°
2026-05-06 23:19 7.72108 -78.22763 27854 ft 386 kts 313°
2026-05-06 23:19 7.73860 -78.24799 27475 ft 382 kts 313°
2026-05-06 23:19 7.75589 -78.26809 27115 ft 378 kts 313°
2026-05-06 23:20 7.77301 -78.28799 26761 ft 374 kts 313°
2026-05-06 23:20 7.79002 -78.30776 26400 ft 372 kts 313°
2026-05-06 23:20 7.80696 -78.32745 26048 ft 371 kts 313°
2026-05-06 23:20 7.82389 -78.34713 25669 ft 372 kts 313°
2026-05-06 23:21 7.84102 -78.36703 25314 ft 380 kts 314°
2026-05-06 23:21 7.85852 -78.38736 24929 ft 387 kts 314°
2026-05-06 23:21 7.87617 -78.40788 24525 ft 386 kts 314°
2026-05-06 23:21 7.89365 -78.42824 24150 ft 383 kts 314°
2026-05-06 23:22 7.91107 -78.44853 23781 ft 381 kts 314°
2026-05-06 23:22 7.92841 -78.46873 23393 ft 380 kts 314°
2026-05-06 23:22 7.94566 -78.48881 22967 ft 377 kts 314°
2026-05-06 23:22 7.96279 -78.50875 22585 ft 374 kts 314°
2026-05-06 23:23 7.97975 -78.52850 22192 ft 371 kts 314°
2026-05-06 23:23 7.99656 -78.54808 21845 ft 368 kts 314°
2026-05-06 23:23 8.01322 -78.56748 21487 ft 365 kts 314°
2026-05-06 23:23 8.02976 -78.58675 21134 ft 362 kts 314°
2026-05-06 23:24 8.04618 -78.60588 20787 ft 359 kts 314°
2026-05-06 23:24 8.06249 -78.62488 20438 ft 357 kts 314°
2026-05-06 23:24 8.07869 -78.64376 20094 ft 355 kts 314°
2026-05-06 23:24 8.09483 -78.66256 19742 ft 353 kts 314°
2026-05-06 23:25 8.11086 -78.68125 19398 ft 352 kts 314°
2026-05-06 23:25 8.12689 -78.69993 19031 ft 351 kts 314°
2026-05-06 23:25 8.14282 -78.71850 18688 ft 350 kts 314°
2026-05-06 23:25 8.15872 -78.73704 18348 ft 349 kts 314°
2026-05-06 23:26 8.17460 -78.75556 17979 ft 348 kts 314°
2026-05-06 23:26 8.19040 -78.77399 17619 ft 346 kts 314°
2026-05-06 23:26 8.20611 -78.79233 17293 ft 343 kts 314°
2026-05-06 23:26 8.22159 -78.81038 17074 ft 337 kts 314°
2026-05-06 23:27 8.23680 -78.82796 16899 ft 329 kts 316°
2026-05-06 23:27 8.25300 -78.84434 16559 ft 330 kts 319°
2026-05-06 23:27 8.26995 -78.86024 16237 ft 335 kts 320°
2026-05-06 23:27 8.28724 -78.87621 15898 ft 339 kts 320°
2026-05-06 23:28 8.30472 -78.89238 15547 ft 342 kts 320°
2026-05-06 23:28 8.32226 -78.90872 15185 ft 344 kts 319°
2026-05-06 23:28 8.33973 -78.92511 14834 ft 342 kts 319°
2026-05-06 23:28 8.35709 -78.94146 14476 ft 340 kts 319°
2026-05-06 23:29 8.37431 -78.95772 14127 ft 338 kts 319°
2026-05-06 23:29 8.39148 -78.97396 13766 ft 337 kts 319°
2026-05-06 23:29 8.40851 -78.99008 13390 ft 335 kts 318°
2026-05-06 23:29 8.42546 -79.00614 13025 ft 332 kts 318°
2026-05-06 23:30 8.44225 -79.02205 12673 ft 330 kts 318°
2026-05-06 23:30 8.45891 -79.03784 12331 ft 327 kts 318°
2026-05-06 23:30 8.47541 -79.05347 11995 ft 324 kts 318°
2026-05-06 23:30 8.49177 -79.06898 11660 ft 321 kts 318°
2026-05-06 23:31 8.50799 -79.08436 11334 ft 318 kts 318°
2026-05-06 23:31 8.52406 -79.09960 11009 ft 316 kts 318°
2026-05-06 23:31 8.54004 -79.11475 10686 ft 314 kts 318°
2026-05-06 23:31 8.55588 -79.12978 10363 ft 311 kts 318°
2026-05-06 23:32 8.57143 -79.14453 10042 ft 309 kts 318°
2026-05-06 23:32 8.58694 -79.15924 9921 ft 299 kts 318°
2026-05-06 23:32 8.60204 -79.17357 9462 ft 303 kts 318°
2026-05-06 23:32 8.61725 -79.18800 9074 ft 297 kts 318°
2026-05-06 23:33 8.63213 -79.20212 8757 ft 289 kts 318°
2026-05-06 23:33 8.64659 -79.21585 8436 ft 282 kts 318°
2026-05-06 23:33 8.66086 -79.22938 8160 ft 281 kts 318°
2026-05-06 23:33 8.67506 -79.24286 7875 ft 280 kts 318°
2026-05-06 23:34 8.68923 -79.25631 7580 ft 279 kts 318°
2026-05-06 23:34 8.70332 -79.26968 7296 ft 278 kts 318°
2026-05-06 23:34 8.71736 -79.28301 7009 ft 276 kts 318°
2026-05-06 23:34 8.73135 -79.29629 6725 ft 275 kts 318°
2026-05-06 23:35 8.74532 -79.30957 6438 ft 274 kts 318°
2026-05-06 23:35 8.75919 -79.32275 6143 ft 273 kts 318°
2026-05-06 23:35 8.77300 -79.33586 5843 ft 272 kts 317°
2026-05-06 23:35 8.78655 -79.34875 5566 ft 270 kts 317°
2026-05-06 23:36 8.80017 -79.36169 5285 ft 268 kts 317°
2026-05-06 23:36 8.81369 -79.37454 5010 ft 266 kts 317°
2026-05-06 23:36 8.82712 -79.38730 4737 ft 264 kts 317°
2026-05-06 23:36 8.84005 -79.40049 4449 ft 263 kts 308°
2026-05-06 23:37 8.84979 -79.41608 4182 ft 262 kts 301°
2026-05-06 23:37 8.85911 -79.43183 3911 ft 260 kts 302°
2026-05-06 23:37 8.86835 -79.44702 3708 ft 246 kts 303°
2026-05-06 23:37 8.87722 -79.46139 3391 ft 235 kts 305°
2026-05-06 23:38 8.88881 -79.47156 3236 ft 213 kts 342°
2026-05-06 23:38 8.90280 -79.47145 3082 ft 201 kts 19°
2026-05-06 23:38 8.91563 -79.46592 2841 ft 201 kts 21°
2026-05-06 23:38 8.92852 -79.46028 2593 ft 202 kts 24°
2026-05-06 23:39 8.94092 -79.45373 2338 ft 199 kts 28°
2026-05-06 23:39 8.95287 -79.44692 2068 ft 198 kts 29°
2026-05-06 23:39 8.96440 -79.44029 1822 ft 183 kts 29°
2026-05-06 23:39 8.97509 -79.43416 1612 ft 170 kts 29°
2026-05-06 23:40 8.98484 -79.42858 1438 ft 156 kts 29°
2026-05-06 23:40 8.99413 -79.42325 1206 ft 148 kts 28°
2026-05-06 23:40 9.00284 -79.41826 1030 ft 141 kts 28°
2026-05-06 23:40 9.01142 -79.41336 862 ft 145 kts 30°
2026-05-06 23:41 9.02026 -79.40829 676 ft 145 kts 29°
2026-05-06 23:41 9.02893 -79.40332 477 ft 140 kts 30°
2026-05-06 23:41 9.03722 -79.39853 311 ft 135 kts 30°
2026-05-06 23:41 9.04547 -79.39385 135 ft 133 kts 30°
2026-05-06 23:42 9.05311 -79.38950 39 ft 116 kts 31°
2026-05-06 23:42 9.05910 -79.38607 43 ft 81 kts 29°
2026-05-06 23:42 9.06221 -79.38431 44 ft 23 kts 29°
2026-05-06 23:42 9.06352 -79.38389 43 ft 16 kts
2026-05-06 23:43 9.06457 -79.38388 42 ft 15 kts
2026-05-06 23:43 9.06558 -79.38388 42 ft 14 kts 358°
2026-05-06 23:43 9.06628 -79.38402 44 ft 8 kts 323°
2026-05-06 23:43 9.06653 -79.38449 44 ft 6 kts 302°
2026-05-06 23:44 9.06686 -79.38456 44 ft 5 kts
2026-05-06 23:44 9.06716 -79.38439 45 ft 5 kts 36°
2026-05-06 23:44 9.06728 -79.38430 45 ft 0 kts 25°
2026-05-06 23:44 9.06731 -79.38432 45 ft 1 kts 345°
2026-05-06 23:45 9.06732 -79.38438 45 ft 1 kts 284°
2026-05-06 23:45 9.06734 -79.38445 45 ft 1 kts 282°
2026-05-06 23:45 9.06738 -79.38457 45 ft 4 kts 293°
2026-05-06 23:45 9.06752 -79.38477 43 ft 2 kts 313°
2026-05-06 23:46 9.06760 -79.38484 44 ft 1 kts 315°
2026-05-06 23:46 9.06762 -79.38486 45 ft 0 kts 315°